Weather History for Stuart, FL

Change the Weather History Date:

Tuesday, January 7, 2014

  Actual Average Record
Temperature  
Mean Temperature 50 °F -  
Max Temperature 55 °F 76 °F 86 °F (1960)
Min Temperature 44 °F 57 °F 41 °F (1985)
Degree Days  
Heating Degree Days 16    
Moisture  
Dew Point 32 °F    
Average Humidity 55    
Maximum Humidity 82    
Minimum Humidity 24    
Precipitation  
Precipitation 0.00 in - - ()
Sea Level Pressure  
Sea Level Pressure 30.30 in    
Wind  
Wind Speed 12 mph (NNW)    
Max Wind Speed 20 mph    
Max Gust Speed 30 mph    
Visibility 10 miles    
Events      
Averages and records for this station are not official NWS values.
T = Trace of Precipitation, MM = Missing Value Source: NWS Daily Summary

Daily Weather History Graph

Daily Weather History Graph

Search for Another Location

Airport:

Trip Planner

Search our weather history database for the weather conditions in past years. The results will help you decide how hot, cold, wet, or windy it might be!

Date:

Astronomy

Jan. 07, 2014 Rise Set
Actual Time 7:11 AM EST 5:42 PM EST
Civil Twilight 6:46 AM EST 6:08 PM EST
Nautical Twilight 6:17 AM EST 6:37 PM EST
Astronomical Twilight 5:49 AM EST 7:05 PM EST
Moon 11:39 AM EST (1/7) No Moon Set
Length of Visible Light 11h 21m
Length of Day
10h 31m
Waxing Crescent, 45% of the Moon is Illuminated
Jan 7
Waxing Crescent
Jan 7
First Quarter
Jan 15
Full
Jan 24
Last Quarter
Jan 30
New

Hourly Weather History & Observations

Time (EST) Temp. Windchill Dew Point Humidity Pressure Visibility Wind Dir Wind Speed Gust Speed Precip Events Conditions
12:15 AM 51.8 °F - 15.8 °F 24% 30.26 in 10.0 mi NNW 12.7 mph 23.0 mph N/A   Overcast
12:35 AM 50.0 °F - 19.4 °F 30% 30.26 in 10.0 mi NNW 11.5 mph 18.4 mph N/A   Overcast
12:55 AM 50.0 °F - 19.4 °F 30% 30.27 in 10.0 mi NNW 13.8 mph 19.6 mph N/A   Overcast
1:15 AM 50.0 °F - 17.6 °F 28% 30.27 in 10.0 mi NNW 12.7 mph 23.0 mph N/A   Overcast
1:35 AM 48.2 °F - 17.6 °F 30% 30.27 in 10.0 mi NNW 13.8 mph 24.2 mph N/A   Overcast
1:55 AM 48.2 °F - 17.6 °F 30% 30.26 in 10.0 mi NNW 13.8 mph 21.9 mph N/A   Overcast
2:15 AM 48.2 °F - 19.4 °F 32% 30.27 in 10.0 mi NNW 13.8 mph 20.7 mph N/A   Overcast
2:35 AM 48.2 °F - 21.2 °F 34% 30.25 in 10.0 mi NNW 8.1 mph 17.3 mph N/A   Overcast
2:55 AM 46.4 °F 40.1 °F 21.2 °F 37% 30.25 in 10.0 mi NNW 15.0 mph 20.7 mph N/A   Overcast
3:15 AM 46.4 °F 40.1 °F 21.2 °F 37% 30.26 in 10.0 mi NNW 15.0 mph 23.0 mph N/A   Overcast
3:35 AM 46.4 °F 41.1 °F 23.0 °F 40% 30.26 in 10.0 mi NNW 11.5 mph 18.4 mph N/A   Overcast
3:55 AM 46.4 °F 41.5 °F 23.0 °F 40% 30.26 in 10.0 mi NNW 10.4 mph 17.3 mph N/A   Overcast
4:15 AM 46.4 °F 42.4 °F 26.6 °F 46% 30.27 in 10.0 mi NNW 8.1 mph 17.3 mph N/A   Overcast
4:35 AM 46.4 °F 42.4 °F 24.8 °F 43% 30.28 in 10.0 mi NW 8.1 mph 17.3 mph N/A   Overcast
4:55 AM 46.4 °F 40.7 °F 24.8 °F 43% 30.28 in 10.0 mi NW 12.7 mph 19.6 mph N/A   Overcast
5:15 AM 46.4 °F 42.4 °F 24.8 °F 43% 30.29 in 10.0 mi NNW 8.1 mph 17.3 mph N/A   Overcast
5:35 AM 44.6 °F 38.1 °F 26.6 °F 49% 30.30 in 10.0 mi NW 13.8 mph 18.4 mph N/A   Light Drizzle
5:55 AM 44.6 °F 38.4 °F 26.6 °F 49% 30.30 in 10.0 mi NNW 12.7 mph 19.6 mph N/A   Overcast
6:15 AM 44.6 °F 38.4 °F 28.4 °F 53% 30.30 in 10.0 mi North 12.7 mph 20.7 mph N/A   Overcast
6:47 AM 46.4 °F 40.4 °F 28.4 °F 50% 30.31 in 10.0 mi NNW 13.8 mph 20.7 mph N/A   Overcast
7:50 AM 46.4 °F 41.1 °F 28.4 °F 50% 30.33 in 10.0 mi NNW 11.5 mph - N/A   Overcast
8:47 AM 44.6 °F - 28.4 °F 53% 30.35 in 10.0 mi North - - N/A   Overcast
9:47 AM 48.2 °F - 32.0 °F 54% 30.35 in 10.0 mi NW 15.0 mph 23.0 mph N/A   Overcast
10:47 AM 48.2 °F - 35.6 °F 62% 30.35 in 10.0 mi NW 15.0 mph 26.5 mph N/A   Overcast
11:47 AM 50.0 °F - 37.4 °F 62% 30.33 in 10.0 mi NW 16.1 mph 23.0 mph N/A   Overcast
12:47 PM 55.4 °F - 42.8 °F 63% 30.29 in 10.0 mi NNW 19.6 mph 28.8 mph N/A   Mostly Cloudy
1:47 PM 55.4 °F - 42.8 °F 63% 30.29 in 10.0 mi NNW 17.3 mph 28.8 mph N/A   Mostly Cloudy
2:47 PM 55.4 °F - 42.8 °F 63% 30.28 in 7.0 mi North 19.6 mph 28.8 mph N/A   Mostly Cloudy
3:47 PM 55.4 °F - 42.8 °F 63% 30.28 in 7.0 mi North 16.1 mph 29.9 mph N/A   Mostly Cloudy
4:47 PM 55.4 °F - 44.6 °F 67% 30.29 in 7.0 mi North 18.4 mph 28.8 mph N/A   Overcast
5:47 PM 53.6 °F - 44.6 °F 72% 30.30 in 7.0 mi North 16.1 mph 25.3 mph N/A   Overcast
6:47 PM 53.6 °F - 44.6 °F 72% 30.31 in 7.0 mi NNW 13.8 mph 20.7 mph N/A   Overcast
8:15 PM 50.0 °F - 41.0 °F 71% 30.33 in 10.0 mi NNW 9.2 mph - N/A   Overcast
8:35 PM 50.0 °F - 42.8 °F 76% 30.33 in 10.0 mi NNW 6.9 mph 16.1 mph N/A   Overcast
8:55 PM 50.0 °F - 42.8 °F 76% 30.33 in 10.0 mi NNW 6.9 mph - N/A   Overcast
9:15 PM 50.0 °F - 42.8 °F 76% 30.33 in 10.0 mi NW 10.4 mph - N/A   Overcast
9:35 PM 50.0 °F - 42.8 °F 76% 30.33 in 10.0 mi NW 10.4 mph 16.1 mph N/A   Overcast
9:55 PM 50.0 °F - 44.6 °F 82% 30.34 in 10.0 mi NW 10.4 mph - N/A   Overcast
10:15 PM 50.0 °F - 42.8 °F 76% 30.35 in 10.0 mi NW 10.4 mph - N/A   Overcast
10:35 PM 50.0 °F - 42.8 °F 76% 30.35 in 10.0 mi NW 9.2 mph - N/A   Overcast
10:55 PM 50.0 °F - 42.8 °F 76% 30.34 in 10.0 mi WNW 5.8 mph - N/A   Overcast
11:15 PM 50.0 °F - 42.8 °F 76% 30.34 in 10.0 mi WNW 8.1 mph - N/A   Overcast
11:35 PM 48.2 °F - 42.8 °F 82% 30.33 in 10.0 mi NW 8.1 mph - N/A   Overcast
11:55 PM 48.2 °F - 42.8 °F 82% 30.33 in 10.0 mi WNW 8.1 mph - N/A   Overcast